RYR58JL EGSS-LFMP

Flight info

Callsign RYR58JL
Flight time 1h 44m
Altitude 32000
Route NUGBO M183 SILVA Q41 COWLY DCT GWC UN859 SOPIL DCT BALAN DCT EVPOK DCT NARAK DCT GAI G36 ORBIL
Aircraft B738/M-SDE2E3FGHIRWXY/LB1

Departure

Time 2026-05-04 05:56
Airport London Stansted Airport (EGSS)

Arrival

Time 2026-05-04 07:41
Airport Perpignan-Rivesaltes (Llabanère) Airport (LFMP)
Time Latitude Longitude Altitude Speed Heading
2026-05-04 05:29 51.89187 0.26047 352 ft 0 kts 42°
2026-05-04 05:47 51.89157 0.25959 355 ft 2 kts 97°
2026-05-04 05:47 51.89156 0.25923 353 ft 4 kts 49°
2026-05-04 05:47 51.89143 0.25914 355 ft 3 kts 317°
2026-05-04 05:48 51.89128 0.25938 352 ft 3 kts 313°
2026-05-04 05:48 51.89126 0.25941 353 ft 0 kts 313°
2026-05-04 05:51 51.89239 0.25373 353 ft 21 kts 223°
2026-05-04 05:51 51.89124 0.25200 348 ft 23 kts 223°
2026-05-04 05:52 51.89008 0.25027 348 ft 22 kts 223°
2026-05-04 05:52 51.88896 0.24858 354 ft 22 kts 223°
2026-05-04 05:52 51.88787 0.24695 353 ft 22 kts 223°
2026-05-04 05:52 51.88661 0.24505 355 ft 28 kts 223°
2026-05-04 05:53 51.88522 0.24297 351 ft 26 kts 223°
2026-05-04 05:54 51.87745 0.23129 351 ft 8 kts 228°
2026-05-04 05:55 51.87735 0.23045 348 ft 9 kts 296°
2026-05-04 05:55 51.87786 0.22939 354 ft 16 kts 313°
2026-05-04 05:55 51.87877 0.22781 352 ft 20 kts 313°
2026-05-04 05:55 51.87953 0.22671 347 ft 10 kts 18°
2026-05-04 05:56 51.88040 0.22790 347 ft 39 kts 42°
2026-05-04 05:56 51.88428 0.23371 347 ft 111 kts 43°
2026-05-04 05:56 51.89139 0.24432 430 ft 157 kts 39°
2026-05-04 05:56 51.89928 0.25633 1256 ft 154 kts 41°
2026-05-04 05:57 51.90705 0.26813 2071 ft 157 kts 41°
2026-05-04 05:57 51.91588 0.28137 2425 ft 190 kts 41°
2026-05-04 05:57 51.92691 0.29494 2930 ft 205 kts 24°
2026-05-04 05:57 51.94102 0.29993 3421 ft 218 kts 356°
2026-05-04 05:58 51.95570 0.29279 4104 ft 226 kts 327°
2026-05-04 05:58 51.96649 0.27433 4914 ft 230 kts 296°
2026-05-04 05:58 51.97089 0.24936 5764 ft 233 kts 279°
2026-05-04 05:58 51.97345 0.22246 6249 ft 255 kts 278°
2026-05-04 05:59 51.97619 0.19304 6823 ft 268 kts 278°
2026-05-04 05:59 51.97906 0.16294 7636 ft 272 kts 278°
2026-05-04 05:59 51.98218 0.13267 8547 ft 273 kts 278°
2026-05-04 05:59 51.98544 0.10198 9339 ft 279 kts 279°
2026-05-04 06:00 51.98873 0.07072 10175 ft 281 kts 276°
2026-05-04 06:00 51.98789 0.03876 10543 ft 300 kts 257°
2026-05-04 06:00 51.98285 0.00409 10755 ft 324 kts 256°
2026-05-04 06:00 51.97779 -0.03230 11291 ft 335 kts 257°
2026-05-04 06:01 51.97284 -0.06947 12027 ft 340 kts 257°
2026-05-04 06:01 51.96792 -0.10704 12865 ft 342 kts 257°
2026-05-04 06:03 51.89942 -0.34439 18324 ft 364 kts 197°
2026-05-04 06:03 51.87390 -0.35038 18960 ft 371 kts 179°
2026-05-04 06:05 51.69012 -0.31238 23534 ft 391 kts 174°
2026-05-04 06:05 51.63592 -0.30124 24609 ft 395 kts 175°
2026-05-04 06:05 51.60862 -0.29569 25081 ft 396 kts 175°
2026-05-04 06:06 51.58122 -0.29014 25598 ft 398 kts 175°
2026-05-04 06:06 51.55435 -0.28471 26095 ft 399 kts 175°
2026-05-04 06:06 51.52678 -0.27914 26624 ft 400 kts 175°
2026-05-04 06:06 51.49913 -0.27357 27113 ft 401 kts 175°
2026-05-04 06:07 51.47137 -0.26798 27569 ft 403 kts 176°
2026-05-04 06:07 51.44342 -0.26237 28021 ft 405 kts 176°
2026-05-04 06:07 51.41540 -0.25674 28465 ft 407 kts 176°
2026-05-04 06:07 51.38725 -0.25109 28914 ft 408 kts 176°
2026-05-04 06:08 51.35908 -0.24544 29471 ft 407 kts 176°
2026-05-04 06:08 51.33118 -0.23984 30142 ft 402 kts 176°
2026-05-04 06:08 51.30372 -0.23431 30850 ft 394 kts 176°
2026-05-04 06:08 51.27649 -0.22886 31218 ft 396 kts 176°
2026-05-04 06:09 51.24895 -0.22340 31391 ft 402 kts 176°
2026-05-04 06:09 51.22109 -0.21788 31706 ft 404 kts 176°
2026-05-04 06:11 51.03050 -0.18010 32953 ft 409 kts 176°
2026-05-04 06:13 50.80546 -0.13588 32982 ft 409 kts 176°
2026-05-04 06:14 50.61023 -0.09785 32969 ft 400 kts 176°
2026-05-04 06:15 50.55506 -0.08717 32973 ft 398 kts 176°
2026-05-04 06:15 50.50015 -0.07657 32977 ft 397 kts 176°
2026-05-04 06:16 50.44531 -0.06600 32981 ft 397 kts 176°
2026-05-04 06:16 50.39053 -0.05547 32978 ft 396 kts 176°
2026-05-04 06:17 50.33576 -0.04497 32973 ft 396 kts 176°
2026-05-04 06:17 50.28102 -0.03449 32980 ft 396 kts 176°
2026-05-04 06:18 50.22625 -0.02403 32981 ft 396 kts 176°
2026-05-04 06:20 50.01810 0.03136 32975 ft 398 kts 169°
2026-05-04 06:21 49.88457 0.08480 32983 ft 396 kts 170°
2026-05-04 06:22 49.83121 0.10567 32978 ft 396 kts 170°
2026-05-04 06:25 49.45640 0.25457 32976 ft 400 kts 169°
2026-05-04 06:26 49.40251 0.27612 32973 ft 401 kts 169°
2026-05-04 06:26 49.34852 0.29767 32971 ft 401 kts 169°
2026-05-04 06:27 49.21395 0.35334 32968 ft 402 kts 168°
2026-05-04 06:28 49.15997 0.37619 32972 ft 402 kts 168°
2026-05-04 06:28 49.10598 0.39889 32974 ft 402 kts 168°
2026-05-04 06:29 49.05201 0.42149 32961 ft 402 kts 168°
2026-05-04 06:29 48.99805 0.44404 32937 ft 402 kts 167°
2026-05-04 06:30 48.94429 0.46646 32957 ft 400 kts 167°
2026-05-04 06:30 48.89066 0.48877 32965 ft 399 kts 167°
2026-05-04 06:31 48.83715 0.51099 32967 ft 398 kts 168°
2026-05-04 06:31 48.78372 0.53309 32965 ft 397 kts 168°
2026-05-04 06:33 48.56976 0.61675 32966 ft 397 kts 168°
2026-05-04 06:34 48.51622 0.63762 32959 ft 398 kts 168°
2026-05-04 06:34 48.46220 0.65486 32967 ft 396 kts 174°
2026-05-04 06:36 48.24377 0.69707 32958 ft 397 kts 174°
2026-05-04 06:37 48.18896 0.70808 32944 ft 398 kts 174°
2026-05-04 06:37 48.13407 0.71909 32946 ft 398 kts 174°
2026-05-04 06:38 48.07917 0.73008 32948 ft 398 kts 174°
2026-05-04 06:40 47.85924 0.77386 32944 ft 399 kts 174°
2026-05-04 06:40 47.80424 0.78475 32944 ft 399 kts 174°
2026-05-04 06:41 47.74928 0.79561 32942 ft 398 kts 174°
2026-05-04 06:41 47.69432 0.80644 32955 ft 398 kts 174°
2026-05-04 06:42 47.63930 0.81726 32953 ft 399 kts 174°
2026-05-04 06:44 47.42043 0.86010 32965 ft 393 kts 174°
2026-05-04 06:44 47.36630 0.87064 32951 ft 392 kts 174°
2026-05-04 06:45 47.31234 0.88112 32958 ft 391 kts 174°
2026-05-04 06:45 47.25848 0.89155 32959 ft 390 kts 174°
2026-05-04 06:46 47.20464 0.90197 32946 ft 391 kts 174°
2026-05-04 06:46 47.15070 0.91238 32940 ft 391 kts 175°
2026-05-04 06:48 46.93367 0.95406 32938 ft 395 kts 175°
2026-05-04 06:50 46.71533 0.99566 32951 ft 395 kts 175°
2026-05-04 06:51 46.66118 1.00593 32951 ft 395 kts 175°
2026-05-04 06:51 46.60674 1.01623 32950 ft 394 kts 175°
2026-05-04 06:52 46.55238 1.02649 32940 ft 394 kts 175°
2026-05-04 06:52 46.49826 1.03863 32957 ft 394 kts 170°
2026-05-04 06:53 46.44481 1.05665 32944 ft 394 kts 170°
2026-05-04 06:53 46.39141 1.07484 32953 ft 394 kts 170°
2026-05-04 06:54 46.33796 1.09283 32962 ft 394 kts 170°
2026-05-04 06:54 46.28449 1.11068 32954 ft 394 kts 170°
2026-05-04 06:55 46.23105 1.12844 32969 ft 394 kts 170°
2026-05-04 06:55 46.17758 1.14617 32956 ft 394 kts 170°
2026-05-04 06:57 45.96382 1.21671 32959 ft 394 kts 171°
2026-05-04 06:58 45.91037 1.23426 32965 ft 394 kts 171°
2026-05-04 06:58 45.85728 1.25166 32970 ft 394 kts 171°
2026-05-04 06:59 45.80377 1.26916 32967 ft 395 kts 171°
2026-05-04 06:59 45.75019 1.28666 32971 ft 395 kts 171°
2026-05-04 07:01 45.53553 1.35640 32960 ft 396 kts 171°
2026-05-04 07:02 45.48183 1.37376 32965 ft 396 kts 171°
2026-05-04 07:02 45.42813 1.39107 32974 ft 396 kts 171°
2026-05-04 07:03 45.37430 1.40839 32960 ft 398 kts 171°
2026-05-04 07:03 45.32031 1.42573 32958 ft 398 kts 171°
2026-05-04 07:04 45.26643 1.44302 32968 ft 397 kts 171°
2026-05-04 07:04 45.21264 1.46024 32965 ft 396 kts 171°
2026-05-04 07:05 45.15931 1.47728 32961 ft 395 kts 171°
2026-05-04 07:05 45.10567 1.49438 32962 ft 395 kts 171°
2026-05-04 07:06 45.02529 1.51995 32971 ft 395 kts 171°
2026-05-04 07:07 44.97163 1.53698 32953 ft 395 kts 171°
2026-05-04 07:09 44.76546 1.60209 32967 ft 398 kts 171°
2026-05-04 07:09 44.71145 1.61908 32960 ft 398 kts 171°
2026-05-04 07:10 44.65743 1.63604 32968 ft 397 kts 171°
2026-05-04 07:12 44.44187 1.70337 32964 ft 397 kts 171°
2026-05-04 07:12 44.38787 1.72016 32950 ft 398 kts 171°
2026-05-04 07:13 44.33385 1.73693 32963 ft 398 kts 172°
2026-05-04 07:13 44.27969 1.75302 32966 ft 398 kts 174°
2026-05-04 07:14 44.14288 1.78264 32967 ft 399 kts 175°
2026-05-04 07:15 44.08796 1.79470 32965 ft 399 kts 175°
2026-05-04 07:15 44.03326 1.80677 32943 ft 391 kts 175°
2026-05-04 07:16 44.00676 1.81263 32580 ft 383 kts 175°
2026-05-04 07:16 43.98024 1.81864 31733 ft 390 kts 172°
2026-05-04 07:16 43.95392 1.82925 31056 ft 397 kts 164°
2026-05-04 07:16 43.92873 1.84508 30501 ft 401 kts 155°
2026-05-04 07:17 43.90500 1.86531 30035 ft 399 kts 153°
2026-05-04 07:17 43.88166 1.88585 29483 ft 395 kts 153°
2026-05-04 07:17 43.85860 1.90615 29005 ft 390 kts 153°
2026-05-04 07:17 43.83614 1.92577 28537 ft 384 kts 153°
2026-05-04 07:18 43.81365 1.94526 28084 ft 379 kts 153°
2026-05-04 07:18 43.79141 1.96442 27633 ft 375 kts 154°
2026-05-04 07:18 43.76937 1.98334 27183 ft 371 kts 154°
2026-05-04 07:18 43.74753 2.00208 26739 ft 368 kts 154°
2026-05-04 07:19 43.72589 2.02063 26321 ft 365 kts 154°
2026-05-04 07:19 43.70438 2.03922 25895 ft 365 kts 153°
2026-05-04 07:19 43.68309 2.05825 25452 ft 364 kts 152°
2026-05-04 07:19 43.66186 2.07747 25022 ft 364 kts 152°
2026-05-04 07:20 43.64069 2.09666 24595 ft 364 kts 152°
2026-05-04 07:20 43.61951 2.11581 24173 ft 365 kts 152°
2026-05-04 07:20 43.59821 2.13500 23699 ft 367 kts 152°
2026-05-04 07:20 43.57680 2.15424 23263 ft 368 kts 152°
2026-05-04 07:22 43.43104 2.28430 20215 ft 346 kts 152°
2026-05-04 07:22 43.41081 2.30200 19776 ft 344 kts 152°
2026-05-04 07:23 43.39069 2.31963 19363 ft 342 kts 152°
2026-05-04 07:23 43.37066 2.33716 18965 ft 341 kts 152°
2026-05-04 07:23 43.35071 2.35462 18545 ft 340 kts 152°
2026-05-04 07:23 43.33073 2.37201 18058 ft 340 kts 152°
2026-05-04 07:24 43.31077 2.38926 17605 ft 338 kts 152°
2026-05-04 07:24 43.29094 2.40636 17178 ft 335 kts 152°
2026-05-04 07:24 43.27128 2.42331 16790 ft 333 kts 152°
2026-05-04 07:24 43.25166 2.44022 16388 ft 333 kts 152°
2026-05-04 07:25 43.23210 2.45707 15966 ft 331 kts 152°
2026-05-04 07:26 43.12238 2.61372 13169 ft 327 kts 130°
2026-05-04 07:27 43.10873 2.63836 12763 ft 323 kts 130°
2026-05-04 07:27 43.09516 2.66272 12369 ft 320 kts 130°
2026-05-04 07:27 43.08170 2.68681 11978 ft 317 kts 130°
2026-05-04 07:27 43.06833 2.71067 11589 ft 315 kts 130°
2026-05-04 07:28 43.05506 2.73433 11214 ft 312 kts 130°
2026-05-04 07:28 43.04189 2.75776 10842 ft 310 kts 130°
2026-05-04 07:28 43.02882 2.78100 10462 ft 308 kts 130°
2026-05-04 07:28 43.01585 2.80404 10207 ft 302 kts 130°
2026-05-04 07:29 43.00325 2.82643 10068 ft 293 kts 130°
2026-05-04 07:29 42.99117 2.84787 9887 ft 286 kts 130°
2026-05-04 07:29 42.97901 2.86934 9525 ft 285 kts 132°
2026-05-04 07:29 42.96430 2.88686 9152 ft 280 kts 149°
2026-05-04 07:30 42.94777 2.90078 8797 ft 279 kts 152°
2026-05-04 07:30 42.93112 2.91422 8473 ft 277 kts 152°
2026-05-04 07:30 42.91456 2.92752 8153 ft 275 kts 152°
2026-05-04 07:30 42.89779 2.93982 7815 ft 273 kts 156°
2026-05-04 07:31 42.88075 2.95111 7487 ft 272 kts 157°
2026-05-04 07:31 42.86372 2.96224 7169 ft 271 kts 157°
2026-05-04 07:33 42.75593 3.03310 6226 ft 221 kts 157°
2026-05-04 07:33 42.74230 3.04222 6075 ft 216 kts 157°
2026-05-04 07:33 42.72881 3.05059 5891 ft 211 kts 161°
2026-05-04 07:33 42.71533 3.05785 5769 ft 203 kts 162°
2026-05-04 07:34 42.70265 3.06472 5701 ft 190 kts 162°
2026-05-04 07:34 42.69071 3.07129 5545 ft 182 kts 162°
2026-05-04 07:34 42.67901 3.07774 5276 ft 181 kts 162°
2026-05-04 07:34 42.66741 3.08418 4938 ft 180 kts 162°
2026-05-04 07:35 42.65585 3.09057 4575 ft 179 kts 163°
2026-05-04 07:35 42.64386 3.09227 4156 ft 176 kts 198°
2026-05-04 07:35 42.63422 3.08249 3822 ft 178 kts 237°
2026-05-04 07:35 42.62886 3.06740 3570 ft 178 kts 242°
2026-05-04 07:36 42.62365 3.05216 3300 ft 178 kts 242°
2026-05-04 07:36 42.61802 3.03672 2861 ft 188 kts 242°
2026-05-04 07:38 42.64624 2.95251 1994 ft 162 kts 328°
2026-05-04 07:38 42.65582 2.94442 1981 ft 165 kts 328°
2026-05-04 07:38 42.66578 2.93604 1781 ft 169 kts 328°
2026-05-04 07:38 42.67570 2.92768 1545 ft 165 kts 328°
2026-05-04 07:39 42.68516 2.91971 1352 ft 152 kts 328°
2026-05-04 07:39 42.69380 2.91243 1135 ft 141 kts 328°
2026-05-04 07:39 42.70206 2.90548 949 ft 141 kts 328°
2026-05-04 07:39 42.71041 2.89845 779 ft 142 kts 329°
2026-05-04 07:40 42.71880 2.89137 591 ft 141 kts 329°
2026-05-04 07:40 42.72702 2.88444 416 ft 138 kts 328°
2026-05-04 07:40 42.73520 2.87755 221 ft 137 kts 329°
2026-05-04 07:40 42.74300 2.87101 148 ft 114 kts 328°
2026-05-04 07:41 42.74785 2.86695 146 ft 49 kts 328°
2026-05-04 07:41 42.74950 2.86553 147 ft 15 kts 317°
2026-05-04 07:41 42.74977 2.86428 147 ft 12 kts 278°
2026-05-04 07:41 42.74952 2.86347 147 ft 8 kts 210°
2026-05-04 07:42 42.74891 2.86353 147 ft 13 kts 157°
2026-05-04 07:42 42.74762 2.86459 147 ft 27 kts 148°
2026-05-04 07:42 42.74600 2.86595 146 ft 27 kts 148°
2026-05-04 07:42 42.74447 2.86723 150 ft 25 kts 148°
2026-05-04 07:43 42.74305 2.86843 147 ft 23 kts 148°
2026-05-04 07:43 42.74184 2.86959 147 ft 20 kts 146°
2026-05-04 07:43 42.74071 2.87056 147 ft 17 kts 148°
2026-05-04 07:43 42.73982 2.87054 147 ft 12 kts 227°
2026-05-04 07:44 42.73960 2.86963 147 ft 10 kts 259°
2026-05-04 07:44 42.73987 2.86933 147 ft 5 kts 348°
2026-05-04 07:44 42.74017 2.86925 147 ft 2 kts 349°
2026-05-04 07:44 42.74018 2.86925 147 ft 0 kts 349°